| time (UTC) | temp C | wind direction | speed KPH | gust KPH | rain 1hr cm | rain 24hr cm | rain mn cm | humidity % | barometer mb |
| 20260509080554 | 8 | 295 | 0.0 | 0.0 | 0.00 | 0.00 | 0.00 | 95 | 1010.9 |
| 20260509080052 | 8 | 271 | 0.0 | 0.0 | 0.00 | 0.00 | 0.00 | 95 | 1010.7 |
| 20260509075549 | 8 | 271 | 0.0 | 0.0 | 0.00 | 0.00 | 0.00 | 95 | 1010.7 |
| 20260509075047 | 8 | 271 | 0.0 | 0.0 | 0.00 | 0.00 | 0.00 | 96 | 1010.8 |
| 20260509074543 | 8 | 271 | 0.0 | 0.0 | 0.00 | 0.00 | 0.00 | 96 | 1010.8 |
| 20260509074040 | 8 | 271 | 0.0 | 0.0 | 0.00 | 0.00 | 0.00 | 95 | 1010.7 |
| 20260509073536 | 8 | 271 | 0.0 | 0.0 | 0.00 | 0.00 | 0.00 | 96 | 1010.8 |
| 20260509073033 | 8 | 271 | 0.0 | 0.0 | 0.00 | 0.00 | 0.00 | 96 | 1011.0 |
| 20260509072529 | 8 | 271 | 0.0 | 0.0 | 0.00 | 0.00 | 0.00 | 96 | 1011.0 |
| 20260509072026 | 8 | 271 | 0.0 | 0.0 | 0.00 | 0.00 | 0.00 | 96 | 1010.9 |
| 20260509071523 | 8 | 271 | 0.0 | 0.0 | 0.00 | 0.00 | 0.00 | 95 | 1011.0 |
| 20260509071021 | 8 | 271 | 0.0 | 0.0 | 0.00 | 0.00 | 0.00 | 95 | 1011.4 |
| 20260509070518 | 8 | 271 | 0.0 | 0.0 | 0.00 | 0.00 | 0.00 | 95 | 1011.5 |
| 20260509070014 | 8 | 271 | 0.0 | 0.0 | 0.00 | 0.00 | 0.00 | 95 | 1011.4 |
| 20260509065509 | 8 | 271 | 0.0 | 0.0 | 0.00 | 0.00 | 0.00 | 94 | 1011.4 |
| 20260509065006 | 8 | 271 | 0.0 | 0.0 | 0.00 | 0.00 | 0.00 | 94 | 1011.5 |
| 20260509064504 | 8 | 271 | 0.0 | 0.0 | 0.00 | 0.00 | 0.00 | 95 | 1011.4 |
| 20260509064001 | 8 | 271 | 0.0 | 0.0 | 0.00 | 0.00 | 0.00 | 94 | 1011.5 |
| 20260509063456 | 8 | 271 | 0.0 | 0.0 | 0.00 | 0.00 | 0.00 | 94 | 1011.2 |
| 20260509062954 | 8 | 271 | 0.0 | 0.0 | 0.00 | 0.00 | 0.00 | 94 | 1011.5 |
| 20260509062451 | 8 | 271 | 0.0 | 0.0 | 0.00 | 0.00 | 0.00 | 94 | 1011.5 |
| 20260509061949 | 8 | 271 | 0.0 | 0.0 | 0.00 | 0.00 | 0.00 | 94 | 1011.5 |
| 20260509061446 | 8 | 271 | 0.0 | 0.0 | 0.00 | 0.00 | 0.00 | 94 | 1011.8 |
| 20260509060943 | 8 | 271 | 0.0 | 0.0 | 0.00 | 0.00 | 0.00 | 94 | 1011.6 |
| 20260509060440 | 8 | 271 | 0.0 | 0.0 | 0.00 | 0.00 | 0.00 | 93 | 1011.5 |
| 20260509055936 | 8 | 271 | 0.0 | 0.0 | 0.00 | 0.00 | 0.00 | 93 | 1011.6 |
| 20260509055431 | 8 | 271 | 0.0 | 0.0 | 0.00 | 0.00 | 0.00 | 92 | 1011.8 |
| 20260509054928 | 8 | 271 | 0.0 | 0.0 | 0.00 | 0.00 | 0.00 | 92 | 1011.8 |
| 20260509054424 | 8 | 271 | 0.0 | 0.0 | 0.00 | 0.00 | 0.00 | 92 | 1012.0 |
| 20260509053923 | 9 | 271 | 0.0 | 0.0 | 0.00 | 0.00 | 0.00 | 92 | 1012.1 |
| 20260509053421 | 8 | 271 | 0.0 | 0.0 | 0.00 | 0.00 | 0.00 | 92 | 1012.2 |
| 20260509052918 | 9 | 271 | 0.0 | 0.0 | 0.00 | 0.00 | 0.00 | 90 | 1012.0 |
| 20260509052415 | 9 | 271 | 0.0 | 0.0 | 0.00 | 0.00 | 0.00 | 92 | 1012.1 |
| 20260509051913 | 9 | 271 | 0.0 | 0.0 | 0.00 | 0.00 | 0.00 | 90 | 1011.9 |
| 20260509051411 | 9 | 271 | 0.0 | 0.0 | 0.00 | 0.00 | 0.00 | 91 | 1012.0 |
| 20260509050907 | 9 | 271 | 0.0 | 0.0 | 0.00 | 0.00 | 0.00 | 89 | 1012.1 |
| 20260509050404 | 9 | 271 | 0.0 | 0.0 | 0.00 | 0.00 | 0.00 | 89 | 1011.9 |
| 20260509045901 | 9 | 271 | 0.0 | 0.0 | 0.00 | 0.00 | 0.00 | 88 | 1011.9 |
| 20260509045358 | 9 | 271 | 0.0 | 0.0 | 0.00 | 0.00 | 0.00 | 89 | 1011.9 |
| 20260509044855 | 9 | 271 | 0.0 | 0.0 | 0.00 | 0.00 | 0.00 | 88 | 1011.9 |
| 20260509044353 | 9 | 271 | 0.0 | 0.0 | 0.00 | 0.00 | 0.00 | 88 | 1011.9 |
| 20260509043849 | 9 | 271 | 0.0 | 0.0 | 0.00 | 0.00 | 0.00 | 88 | 1011.7 |
| 20260509043345 | 9 | 271 | 0.0 | 0.0 | 0.00 | 0.00 | 0.00 | 88 | 1012.0 |
| 20260509042841 | 10 | 271 | 0.0 | 0.0 | 0.00 | 0.00 | 0.00 | 87 | 1012.1 |
| 20260509042337 | 10 | 271 | 0.0 | 0.0 | 0.00 | 0.00 | 0.00 | 86 | 1012.1 |
| 20260509041834 | 10 | 271 | 0.0 | 0.0 | 0.00 | 0.00 | 0.00 | 86 | 1012.0 |
| 20260509041331 | 10 | 271 | 0.0 | 0.0 | 0.00 | 0.00 | 0.00 | 86 | 1012.2 |
| 20260509040829 | 10 | 270 | 0.0 | 0.0 | 0.00 | 0.00 | 0.00 | 85 | 1012.2 |
| 20260509040327 | 10 | 270 | 0.0 | 0.0 | 0.00 | 0.00 | 0.00 | 85 | 1012.1 |
| 20260509035823 | 10 | 270 | 0.0 | 0.0 | 0.00 | 0.00 | 0.00 | 85 | 1012.1 |
| 20260509035321 | 10 | 270 | 0.0 | 0.0 | 0.00 | 0.00 | 0.00 | 84 | 1012.4 |
| 20260509034817 | 10 | 270 | 0.0 | 0.0 | 0.00 | 0.00 | 0.00 | 83 | 1012.2 |
| 20260509034315 | 10 | 270 | 0.0 | 0.0 | 0.00 | 0.00 | 0.00 | 83 | 1012.4 |
| 20260509033811 | 10 | 270 | 0.0 | 0.0 | 0.00 | 0.00 | 0.00 | 84 | 1012.4 |
| 20260509033309 | 10 | 270 | 0.0 | 0.0 | 0.00 | 0.00 | 0.00 | 84 | 1012.2 |
| 20260509032805 | 10 | 270 | 0.0 | 0.0 | 0.00 | 0.00 | 0.00 | 84 | 1012.4 |
| 20260509032306 | 10 | 270 | 0.0 | 0.0 | 0.00 | 0.00 | 0.00 | 83 | 1012.4 |
| 20260509031800 | 10 | 270 | 0.0 | 0.0 | 0.00 | 0.00 | 0.00 | 83 | 1012.3 |
| 20260509031257 | 10 | 270 | 0.0 | 0.0 | 0.00 | 0.00 | 0.00 | 82 | 1012.5 |
| 20260509030755 | 10 | 270 | 0.0 | 0.0 | 0.00 | 0.00 | 0.00 | 81 | 1012.6 |
| 20260509030252 | 11 | 270 | 0.0 | 0.0 | 0.00 | 0.00 | 0.00 | 80 | 1012.4 |
| 20260509025749 | 11 | 270 | 0.0 | 0.0 | 0.00 | 0.00 | 0.00 | 79 | 1012.4 |
| 20260509025245 | 11 | 270 | 0.0 | 0.0 | 0.00 | 0.00 | 0.00 | 80 | 1012.3 |
| 20260509024740 | 11 | 270 | 0.0 | 0.0 | 0.00 | 0.00 | 0.00 | 79 | 1012.3 |
| 20260509024237 | 11 | 270 | 0.0 | 0.0 | 0.00 | 0.00 | 0.00 | 79 | 1012.6 |
| 20260509023734 | 11 | 270 | 0.0 | 0.0 | 0.00 | 0.00 | 0.00 | 77 | 1012.5 |
| 20260509023231 | 11 | 270 | 0.0 | 0.0 | 0.00 | 0.00 | 0.00 | 76 | 1012.6 |
| 20260509022727 | 12 | 270 | 0.0 | 0.0 | 0.00 | 0.00 | 0.00 | 75 | 1012.4 |
| 20260509022225 | 12 | 270 | 0.0 | 0.0 | 0.00 | 0.00 | 0.00 | 74 | 1012.3 |
| 20260509021722 | 12 | 270 | 0.0 | 0.0 | 0.00 | 0.00 | 0.00 | 72 | 1012.4 |
| 20260509021219 | 12 | 270 | 0.0 | 0.0 | 0.00 | 0.00 | 0.00 | 71 | 1012.5 |
| 20260509020717 | 12 | 270 | 0.0 | 0.0 | 0.00 | 0.00 | 0.00 | 70 | 1012.3 |
| 20260509020214 | 12 | 270 | 0.0 | 0.0 | 0.00 | 0.00 | 0.00 | 70 | 1012.3 |
| 20260509015712 | 12 | 270 | 0.0 | 0.0 | 0.00 | 0.00 | 0.00 | 67 | 1012.2 |
| 20260509015210 | 13 | 270 | 0.0 | 0.0 | 0.00 | 0.00 | 0.00 | 69 | 1012.1 |
| 20260509014706 | 13 | 270 | 0.0 | 0.0 | 0.00 | 0.00 | 0.00 | 69 | 1012.3 |
| 20260509014203 | 13 | 270 | 0.0 | 0.0 | 0.00 | 0.00 | 0.00 | 68 | 1012.2 |
| 20260509013659 | 13 | 270 | 0.0 | 0.0 | 0.00 | 0.00 | 0.00 | 69 | 1011.9 |
| 20260509013155 | 13 | 270 | 0.0 | 0.0 | 0.00 | 0.00 | 0.00 | 68 | 1012.0 |
| 20260509012652 | 13 | 270 | 0.0 | 0.0 | 0.00 | 0.00 | 0.00 | 68 | 1012.0 |
| 20260509012149 | 13 | 270 | 0.0 | 0.0 | 0.00 | 0.00 | 0.00 | 65 | 1011.8 |
| 20260509011647 | 13 | 270 | 0.0 | 0.0 | 0.00 | 0.00 | 0.00 | 63 | 1011.9 |
| 20260509011144 | 14 | 270 | 0.0 | 0.0 | 0.00 | 0.00 | 0.00 | 64 | 1011.9 |
| 20260509010641 | 15 | 270 | 0.0 | 0.0 | 0.00 | 0.00 | 0.00 | 61 | 1011.9 |
| 20260509010137 | 15 | 270 | 0.0 | 0.0 | 0.00 | 0.00 | 0.00 | 62 | 1011.8 |
| 20260509005635 | 15 | 270 | 0.0 | 0.0 | 0.00 | 0.00 | 0.00 | 62 | 1012.0 |
| 20260509005132 | 16 | 270 | 0.0 | 0.0 | 0.00 | 0.00 | 0.00 | 59 | 1012.1 |
| 20260509004627 | 16 | 270 | 0.0 | 0.0 | 0.00 | 0.00 | 0.00 | 61 | 1012.0 |
| 20260509004124 | 16 | 269 | 0.0 | 0.0 | 0.00 | 0.00 | 0.00 | 58 | 1012.0 |
| 20260509003623 | 17 | 268 | 0.0 | 0.0 | 0.00 | 0.00 | 0.00 | 58 | 1012.2 |
| 20260509003120 | 17 | 268 | 0.0 | 0.0 | 0.00 | 0.00 | 0.00 | 54 | 1011.8 |
| 20260509002617 | 18 | 266 | 1.6 | 1.6 | 0.00 | 0.00 | 0.00 | 51 | 1011.8 |
| 20260509002114 | 18 | 266 | 3.2 | 3.2 | 0.00 | 0.00 | 0.00 | 49 | 1012.0 |
| 20260509001612 | 18 | 266 | 3.2 | 3.2 | 0.00 | 0.00 | 0.00 | 47 | 1012.0 |
| 20260509001107 | 18 | 266 | 1.6 | 1.6 | 0.00 | 0.00 | 0.00 | 46 | 1012.0 |
| 20260509000606 | 18 | 265 | 3.2 | 3.2 | 0.00 | 0.00 | 0.00 | 46 | 1011.9 |
| 20260508235600 | 18 | 266 | 3.2 | 3.2 | 0.00 | 0.00 | 0.00 | 45 | 1012.0 |
| 20260508235056 | 18 | 266 | 3.2 | 1.6 | 0.00 | 0.00 | 0.00 | 44 | 1011.9 |
| 20260508234554 | 19 | 265 | 3.2 | 3.2 | 0.00 | 0.00 | 0.00 | 45 | 1012.0 |
| 20260508234050 | 19 | 266 | 3.2 | 1.6 | 0.00 | 0.00 | 0.00 | 43 | 1012.0 |
| 20260508233549 | 19 | 266 | 3.2 | 3.2 | 0.00 | 0.00 | 0.00 | 43 | 1012.0 |
| 20260508233047 | 19 | 267 | 1.6 | 1.6 | 0.00 | 0.00 | 0.00 | 44 | 1011.9 |
| 20260508232543 | 19 | 267 | 1.6 | 1.6 | 0.00 | 0.00 | 0.00 | 43 | 1012.1 |
| 20260508232040 | 19 | 268 | 1.6 | 1.6 | 0.00 | 0.00 | 0.00 | 40 | 1012.1 |
| 20260508231538 | 19 | 268 | 1.6 | 1.6 | 0.00 | 0.00 | 0.00 | 41 | 1012.0 |
| 20260508231035 | 19 | 268 | 1.6 | 1.6 | 0.00 | 0.00 | 0.00 | 43 | 1012.2 |
| 20260508230531 | 20 | 268 | 1.6 | 1.6 | 0.00 | 0.00 | 0.00 | 41 | 1012.0 |
| 20260508230028 | 20 | 270 | 1.6 | 1.6 | 0.00 | 0.00 | 0.00 | 41 | 1012.1 |
| 20260508225525 | 20 | 270 | 0.0 | 0.0 | 0.00 | 0.00 | 0.00 | 37 | 1011.9 |
| 20260508225022 | 20 | 270 | 1.6 | 1.6 | 0.00 | 0.00 | 0.00 | 37 | 1012.0 |
| 20260508224520 | 20 | 280 | 1.6 | 0.0 | 0.00 | 0.00 | 0.00 | 37 | 1012.0 |
| 20260508224017 | 20 | 279 | 1.6 | 3.2 | 0.00 | 0.00 | 0.00 | 41 | 1012.1 |
| 20260508223515 | 20 | 287 | 1.6 | 1.6 | 0.00 | 0.00 | 0.00 | 36 | 1012.1 |
| 20260508223012 | 20 | 302 | 0.0 | 1.6 | 0.00 | 0.00 | 0.00 | 40 | 1012.0 |
| 20260508222509 | 20 | 288 | 1.6 | 1.6 | 0.00 | 0.00 | 0.00 | 36 | 1012.2 |
| 20260508222005 | 21 | 276 | 0.0 | 0.0 | 0.00 | 0.00 | 0.00 | 35 | 1012.2 |
| 20260508221502 | 21 | 278 | 1.6 | 3.2 | 0.00 | 0.00 | 0.00 | 30 | 1012.2 |
| 20260508220958 | 21 | 282 | 1.6 | 1.6 | 0.00 | 0.00 | 0.00 | 33 | 1012.4 |
| 20260508220454 | 20 | 281 | 1.6 | 1.6 | 0.00 | 0.00 | 0.00 | 35 | 1012.4 |
| 20260508215950 | 20 | 276 | 1.6 | 1.6 | 0.00 | 0.00 | 0.00 | 38 | 1012.5 |
| 20260508215448 | 21 | 291 | 3.2 | 3.2 | 0.00 | 0.00 | 0.00 | 38 | 1012.4 |
| 20260508214944 | 21 | 292 | 1.6 | 1.6 | 0.00 | 0.00 | 0.00 | 35 | 1012.6 |
| 20260508214442 | 21 | 271 | 1.6 | 1.6 | 0.00 | 0.00 | 0.00 | 34 | 1012.5 |
| 20260508213938 | 21 | 282 | 0.0 | 0.0 | 0.00 | 0.00 | 0.00 | 33 | 1012.5 |
| 20260508213436 | 21 | 311 | 1.6 | 1.6 | 0.00 | 0.00 | 0.00 | 32 | 1012.5 |
| 20260508212931 | 21 | 304 | 1.6 | 1.6 | 0.00 | 0.00 | 0.00 | 32 | 1012.4 |
| 20260508212428 | 21 | 259 | 3.2 | 3.2 | 0.00 | 0.00 | 0.00 | 29 | 1012.4 |
| 20260508211924 | 22 | 285 | 0.0 | 0.0 | 0.00 | 0.00 | 0.00 | 33 | 1012.2 |
| 20260508211420 | 22 | 275 | 0.0 | 0.0 | 0.00 | 0.00 | 0.00 | 32 | 1012.3 |
| 20260508210917 | 21 | 287 | 0.0 | 1.6 | 0.00 | 0.00 | 0.00 | 32 | 1012.3 |
| 20260508210414 | 21 | 335 | 1.6 | 3.2 | 0.00 | 0.00 | 0.00 | 31 | 1012.4 |
| 20260508205910 | 22 | 277 | 3.2 | 1.6 | 0.00 | 0.00 | 0.00 | 39 | 1012.6 |
| 20260508205407 | 22 | 285 | 1.6 | 1.6 | 0.00 | 0.00 | 0.00 | 34 | 1012.5 |
| 20260508204903 | 22 | 286 | 1.6 | 1.6 | 0.00 | 0.00 | 0.00 | 30 | 1012.7 |
| 20260508204401 | 22 | 308 | 0.0 | 0.0 | 0.00 | 0.00 | 0.00 | 32 | 1012.6 |
| 20260508203856 | 22 | 260 | 3.2 | 3.2 | 0.00 | 0.00 | 0.00 | 40 | 1012.6 |
| 20260508203352 | 22 | 183 | 6.4 | 6.4 | 0.00 | 0.00 | 0.00 | 30 | 1012.7 |
| 20260508202848 | 22 | 263 | 0.0 | 0.0 | 0.00 | 0.00 | 0.00 | 34 | 1012.8 |
| 20260508202346 | 22 | 144 | 6.4 | 6.4 | 0.00 | 0.00 | 0.00 | 37 | 1013.0 |
| 20260508201843 | 22 | 272 | 0.0 | 0.0 | 0.00 | 0.00 | 0.00 | 32 | 1013.1 |
| 20260508201340 | 22 | 181 | 6.4 | 6.4 | 0.00 | 0.00 | 0.00 | 30 | 1013.0 |
| 20260508200836 | 22 | 309 | 0.0 | 0.0 | 0.00 | 0.00 | 0.00 | 33 | 1013.1 |
| 20260508200333 | 22 | 123 | 8.0 | 9.7 | 0.00 | 0.00 | 0.00 | 28 | 1013.3 |
| 20260508195828 | 22 | 66 | 0.0 | 0.0 | 0.00 | 0.00 | 0.00 | 29 | 1013.4 |
| 20260508195326 | 22 | 275 | 3.2 | 1.6 | 0.00 | 0.00 | 0.00 | 28 | 1013.4 |
| 20260508194822 | 22 | 95 | 6.4 | 6.4 | 0.00 | 0.00 | 0.00 | 31 | 1013.4 |
| 20260508194319 | 22 | 182 | 6.4 | 6.4 | 0.00 | 0.00 | 0.00 | 28 | 1013.4 |
| 20260508193816 | 21 | 257 | 3.2 | 3.2 | 0.00 | 0.00 | 0.00 | 40 | 1013.3 |
| 20260508193313 | 21 | 338 | 1.6 | 1.6 | 0.00 | 0.00 | 0.00 | 28 | 1013.6 |
| 20260508192809 | 21 | 236 | 3.2 | 3.2 | 0.00 | 0.00 | 0.00 | 28 | 1013.6 |
| 20260508192306 | 21 | 333 | 0.0 | 0.0 | 0.00 | 0.00 | 0.00 | 29 | 1013.8 |
| 20260508191803 | 21 | 338 | 4.8 | 6.4 | 0.00 | 0.00 | 0.00 | 28 | 1013.7 |
| 20260508191300 | 21 | 223 | 3.2 | 6.4 | 0.00 | 0.00 | 0.00 | 30 | 1014.0 |
| 20260508190758 | 21 | 344 | 3.2 | 3.2 | 0.00 | 0.00 | 0.00 | 32 | 1014.0 |
| 20260508190253 | 21 | 312 | 3.2 | 3.2 | 0.00 | 0.00 | 0.00 | 28 | 1014.3 |
| 20260508185750 | 21 | 276 | 1.6 | 1.6 | 0.00 | 0.00 | 0.00 | 29 | 1014.4 |
| 20260508185248 | 21 | 101 | 3.2 | 3.2 | 0.00 | 0.00 | 0.00 | 27 | 1014.4 |
| 20260508184745 | 21 | 283 | 1.6 | 1.6 | 0.00 | 0.00 | 0.00 | 28 | 1014.7 |
| 20260508184242 | 21 | 347 | 1.6 | 1.6 | 0.00 | 0.00 | 0.00 | 32 | 1014.6 |
| 20260508183739 | 21 | 358 | 3.2 | 3.2 | 0.00 | 0.00 | 0.00 | 29 | 1014.9 |
| 20260508183235 | 21 | 323 | 4.8 | 4.8 | 0.00 | 0.00 | 0.00 | 26 | 1014.9 |
| 20260508182731 | 21 | 313 | 3.2 | 3.2 | 0.00 | 0.00 | 0.00 | 32 | 1014.8 |
| 20260508182228 | 21 | 282 | 1.6 | 1.6 | 0.00 | 0.00 | 0.00 | 31 | 1015.3 |
| 20260508181724 | 21 | 121 | 1.6 | 1.6 | 0.00 | 0.00 | 0.00 | 34 | 1015.0 |
| 20260508181221 | 21 | 293 | 1.6 | 1.6 | 0.00 | 0.00 | 0.00 | 27 | 1015.4 |
| 20260508180717 | 20 | 287 | 1.6 | 1.6 | 0.00 | 0.00 | 0.00 | 29 | 1015.3 |
| 20260508180214 | 20 | 1 | 3.2 | 3.2 | 0.00 | 0.00 | 0.00 | 33 | 1015.6 |
| 20260508175711 | 20 | 289 | 0.0 | 0.0 | 0.00 | 0.00 | 0.00 | 29 | 1015.6 |
| 20260508175208 | 20 | 328 | 0.0 | 0.0 | 0.00 | 0.00 | 0.00 | 30 | 1015.8 |
| 20260508174706 | 21 | 203 | 8.0 | 9.7 | 0.00 | 0.00 | 0.00 | 28 | 1015.7 |
| 20260508174202 | 20 | 158 | 4.8 | 6.4 | 0.00 | 0.00 | 0.00 | 30 | 1015.7 |
| 20260508173659 | 20 | 19 | 1.6 | 1.6 | 0.00 | 0.00 | 0.00 | 32 | 1015.6 |
| 20260508173154 | 20 | 268 | 1.6 | 1.6 | 0.00 | 0.00 | 0.00 | 31 | 1015.8 |
| 20260508172652 | 20 | 193 | 9.7 | 11.3 | 0.00 | 0.00 | 0.00 | 30 | 1016.0 |
| 20260508172149 | 20 | 319 | 1.6 | 3.2 | 0.00 | 0.00 | 0.00 | 34 | 1016.0 |
| 20260508171645 | 20 | 348 | 3.2 | 4.8 | 0.00 | 0.00 | 0.00 | 36 | 1016.0 |
| 20260508171141 | 20 | 292 | 1.6 | 1.6 | 0.00 | 0.00 | 0.00 | 31 | 1016.1 |
| 20260508170639 | 20 | 312 | 0.0 | 1.6 | 0.00 | 0.00 | 0.00 | 32 | 1016.2 |
| 20260508170136 | 20 | 265 | 1.6 | 1.6 | 0.00 | 0.00 | 0.00 | 33 | 1016.3 |
| 20260508165633 | 20 | 113 | 6.4 | 9.7 | 0.00 | 0.00 | 0.00 | 32 | 1016.5 |
| 20260508165130 | 20 | 328 | 3.2 | 3.2 | 0.00 | 0.00 | 0.00 | 32 | 1016.4 |
| 20260508164626 | 20 | 199 | 6.4 | 6.4 | 0.00 | 0.00 | 0.00 | 31 | 1016.7 |
| 20260508164124 | 20 | 288 | 1.6 | 1.6 | 0.00 | 0.00 | 0.00 | 34 | 1016.7 |
| 20260508163621 | 19 | 238 | 6.4 | 6.4 | 0.00 | 0.00 | 0.00 | 32 | 1016.8 |
| 20260508163118 | 20 | 33 | 4.8 | 4.8 | 0.00 | 0.00 | 0.00 | 33 | 1017.0 |
| 20260508162614 | 20 | 99 | 3.2 | 4.8 | 0.00 | 0.00 | 0.00 | 37 | 1017.1 |
| 20260508162112 | 20 | 335 | 1.6 | 1.6 | 0.00 | 0.00 | 0.00 | 37 | 1017.4 |
| 20260508161608 | 20 | 147 | 3.2 | 6.4 | 0.00 | 0.00 | 0.00 | 39 | 1017.4 |
| 20260508161106 | 19 | 279 | 1.6 | 1.6 | 0.00 | 0.00 | 0.00 | 39 | 1017.4 |
| 20260508160604 | 19 | 10 | 4.8 | 4.8 | 0.00 | 0.00 | 0.00 | 38 | 1017.6 |
| 20260508160101 | 18 | 285 | 0.0 | 0.0 | 0.00 | 0.00 | 0.00 | 38 | 1017.6 |
| 20260508155558 | 18 | 19 | 3.2 | 3.2 | 0.00 | 0.00 | 0.00 | 37 | 1017.9 |
| 20260508155055 | 18 | 132 | 4.8 | 6.4 | 0.00 | 0.00 | 0.00 | 35 | 1017.7 |
| 20260508154552 | 18 | 263 | 3.2 | 3.2 | 0.00 | 0.00 | 0.00 | 35 | 1017.8 |
| 20260508154049 | 18 | 110 | 4.8 | 4.8 | 0.00 | 0.00 | 0.00 | 35 | 1017.7 |
| 20260508153545 | 18 | 20 | 1.6 | 3.2 | 0.00 | 0.00 | 0.00 | 36 | 1017.9 |
| 20260508153042 | 18 | 5 | 3.2 | 3.2 | 0.00 | 0.00 | 0.00 | 39 | 1018.0 |
| 20260508152540 | 18 | 15 | 1.6 | 1.6 | 0.00 | 0.00 | 0.00 | 38 | 1017.9 |
| 20260508152034 | 18 | 266 | 3.2 | 3.2 | 0.00 | 0.00 | 0.00 | 35 | 1018.1 |
| 20260508151531 | 18 | 336 | 3.2 | 3.2 | 0.00 | 0.00 | 0.00 | 35 | 1018.1 |
| 20260508151028 | 18 | 118 | 8.0 | 9.7 | 0.00 | 0.00 | 0.00 | 36 | 1018.2 |
| 20260508150526 | 18 | 334 | 0.0 | 0.0 | 0.00 | 0.00 | 0.00 | 41 | 1018.3 |
| 20260508150021 | 17 | 220 | 4.8 | 4.8 | 0.00 | 0.00 | 0.00 | 44 | 1018.2 |
| 20260508145518 | 17 | 243 | 3.2 | 3.2 | 0.00 | 0.00 | 0.00 | 40 | 1018.1 |
| 20260508145014 | 17 | 279 | 1.6 | 1.6 | 0.00 | 0.00 | 0.00 | 45 | 1018.3 |
| 20260508144512 | 17 | 256 | 3.2 | 3.2 | 0.00 | 0.00 | 0.00 | 43 | 1018.3 |
| 20260508144009 | 17 | 343 | 1.6 | 1.6 | 0.00 | 0.00 | 0.00 | 47 | 1018.3 |
| 20260508143507 | 17 | 331 | 1.6 | 1.6 | 0.00 | 0.00 | 0.00 | 51 | 1018.2 |
| 20260508143003 | 17 | 320 | 1.6 | 1.6 | 0.00 | 0.00 | 0.00 | 59 | 1018.4 |
| 20260508142500 | 16 | 301 | 1.6 | 1.6 | 0.00 | 0.00 | 0.00 | 59 | 1018.6 |
| 20260508141956 | 15 | 350 | 1.6 | 1.6 | 0.00 | 0.00 | 0.00 | 63 | 1018.5 |
| 20260508141453 | 15 | 332 | 1.6 | 1.6 | 0.00 | 0.00 | 0.00 | 66 | 1018.6 |
| 20260508140951 | 15 | 325 | 0.0 | 1.6 | 0.00 | 0.00 | 0.00 | 67 | 1018.7 |
| 20260508140448 | 13 | 336 | 1.6 | 3.2 | 0.00 | 0.00 | 0.00 | 68 | 1018.7 |
| 20260508135943 | 13 | 345 | 3.2 | 3.2 | 0.00 | 0.00 | 0.00 | 72 | 1018.6 |
| 20260508135440 | 13 | 339 | 0.0 | 0.0 | 0.00 | 0.00 | 0.00 | 77 | 1018.7 |
| 20260508134937 | 12 | 337 | 1.6 | 1.6 | 0.00 | 0.00 | 0.00 | 78 | 1018.9 |
| 20260508134433 | 11 | 335 | 1.6 | 1.6 | 0.00 | 0.00 | 0.00 | 78 | 1018.6 |
| 20260508133930 | 11 | 336 | 1.6 | 1.6 | 0.00 | 0.00 | 0.00 | 82 | 1018.6 |
| 20260508133428 | 11 | 341 | 1.6 | 3.2 | 0.00 | 0.00 | 0.00 | 84 | 1018.8 |
| 20260508132924 | 10 | 339 | 1.6 | 1.6 | 0.00 | 0.00 | 0.00 | 84 | 1018.7 |
| 20260508132422 | 10 | 339 | 1.6 | 1.6 | 0.00 | 0.00 | 0.00 | 84 | 1018.7 |
| 20260508131919 | 10 | 335 | 1.6 | 1.6 | 0.00 | 0.00 | 0.00 | 86 | 1018.8 |
| 20260508131414 | 9 | 332 | 0.0 | 0.0 | 0.00 | 0.00 | 0.00 | 86 | 1018.7 |
| 20260508130911 | 9 | 332 | 0.0 | 0.0 | 0.00 | 0.00 | 0.00 | 89 | 1018.7 |
| 20260508130408 | 8 | 331 | 0.0 | 0.0 | 0.00 | 0.00 | 0.00 | 88 | 1018.6 |
| 20260508125904 | 8 | 332 | 0.0 | 0.0 | 0.00 | 0.00 | 0.00 | 90 | 1018.6 |
| 20260508125400 | 7 | 331 | 0.0 | 1.6 | 0.00 | 0.00 | 0.00 | 91 | 1018.5 |
| 20260508124858 | 7 | 331 | 0.0 | 0.0 | 0.00 | 0.00 | 0.00 | 93 | 1018.7 |
| 20260508124355 | 7 | 331 | 0.0 | 0.0 | 0.00 | 0.00 | 0.00 | 94 | 1018.5 |
| 20260508123853 | 7 | 331 | 0.0 | 1.6 | 0.00 | 0.00 | 0.00 | 93 | 1018.6 |
| 20260508123352 | 6 | 330 | 1.6 | 1.6 | 0.00 | 0.00 | 0.00 | 94 | 1018.8 |
| 20260508122847 | 6 | 330 | 0.0 | 0.0 | 0.00 | 0.00 | 0.00 | 96 | 1018.7 |
| 20260508122344 | 6 | 333 | 1.6 | 1.6 | 0.00 | 0.00 | 0.00 | 95 | 1018.6 |
| 20260508121841 | 5 | 318 | 0.0 | 0.0 | 0.00 | 0.00 | 0.00 | 97 | 1018.7 |
| 20260508121340 | 5 | 281 | 0.0 | 0.0 | 0.00 | 0.00 | 0.00 | 97 | 1018.7 |
| 20260508120837 | 5 | 281 | 0.0 | 0.0 | 0.00 | 0.00 | 0.00 | 97 | 1018.7 |
| 20260508120335 | 5 | 280 | 0.0 | 0.0 | 0.00 | 0.00 | 0.00 | 98 | 1018.6 |
| 20260508115832 | 4 | 278 | 0.0 | 0.0 | 0.00 | 0.00 | 0.00 | 98 | 1018.6 |
| 20260508115330 | 3 | 278 | 0.0 | 0.0 | 0.00 | 0.00 | 0.00 | 98 | 1018.6 |
| 20260508114826 | 3 | 278 | 0.0 | 0.0 | 0.00 | 0.00 | 0.00 | 98 | 1018.4 |
| 20260508114323 | 3 | 277 | 0.0 | 0.0 | 0.00 | 0.00 | 0.00 | 98 | 1018.5 |
| 20260508113820 | 3 | 277 | 0.0 | 0.0 | 0.00 | 0.00 | 0.00 | 98 | 1018.2 |
| 20260508113318 | 3 | 277 | 0.0 | 0.0 | 0.00 | 0.00 | 0.00 | 98 | 1018.2 |
| 20260508112814 | 3 | 277 | 0.0 | 0.0 | 0.00 | 0.00 | 0.00 | 98 | 1018.1 |
| 20260508112311 | 3 | 277 | 0.0 | 0.0 | 0.00 | 0.00 | 0.00 | 98 | 1017.9 |
| 20260508111807 | 2 | 275 | 0.0 | 0.0 | 0.00 | 0.00 | 0.00 | 98 | 1017.9 |
| 20260508111305 | 2 | 274 | 0.0 | 0.0 | 0.00 | 0.00 | 0.00 | 98 | 1017.7 |
| 20260508110802 | 2 | 273 | 0.0 | 0.0 | 0.00 | 0.00 | 0.00 | 98 | 1018.0 |
| 20260508110300 | 2 | 273 | 0.0 | 0.0 | 0.00 | 0.00 | 0.00 | 98 | 1017.8 |
| 20260508105759 | 2 | 273 | 0.0 | 0.0 | 0.00 | 0.00 | 0.00 | 98 | 1017.6 |
| 20260508105256 | 2 | 273 | 0.0 | 0.0 | 0.00 | 0.00 | 0.00 | 98 | 1017.6 |
| 20260508104753 | 2 | 273 | 0.0 | 0.0 | 0.00 | 0.00 | 0.00 | 98 | 1017.7 |
| 20260508104250 | 2 | 273 | 0.0 | 0.0 | 0.00 | 0.00 | 0.00 | 98 | 1017.6 |
| 20260508103748 | 2 | 273 | 0.0 | 0.0 | 0.00 | 0.00 | 0.00 | 98 | 1017.5 |
| 20260508103244 | 2 | 273 | 0.0 | 0.0 | 0.00 | 0.00 | 0.00 | 98 | 1017.9 |
| 20260508102741 | 2 | 273 | 0.0 | 0.0 | 0.00 | 0.00 | 0.00 | 98 | 1017.5 |
| 20260508102240 | 2 | 273 | 0.0 | 0.0 | 0.00 | 0.00 | 0.00 | 98 | 1017.6 |
| 20260508101737 | 3 | 273 | 0.0 | 0.0 | 0.00 | 0.00 | 0.00 | 98 | 1017.4 |
| 20260508101234 | 3 | 272 | 0.0 | 0.0 | 0.00 | 0.00 | 0.00 | 98 | 1017.2 |
| 20260508100732 | 3 | 272 | 0.0 | 0.0 | 0.00 | 0.00 | 0.00 | 98 | 1017.4 |
| 20260508100229 | 3 | 272 | 0.0 | 0.0 | 0.00 | 0.00 | 0.00 | 98 | 1017.1 |
| 20260508095725 | 3 | 272 | 0.0 | 0.0 | 0.00 | 0.00 | 0.00 | 98 | 1017.1 |
| 20260508095223 | 3 | 272 | 0.0 | 0.0 | 0.00 | 0.00 | 0.00 | 98 | 1017.1 |
| 20260508094719 | 3 | 272 | 0.0 | 0.0 | 0.00 | 0.00 | 0.00 | 98 | 1017.4 |
| 20260508094216 | 3 | 272 | 0.0 | 0.0 | 0.00 | 0.00 | 0.00 | 98 | 1017.2 |
| 20260508093714 | 3 | 272 | 0.0 | 0.0 | 0.00 | 0.00 | 0.00 | 98 | 1017.1 |
| 20260508093212 | 3 | 272 | 0.0 | 0.0 | 0.00 | 0.00 | 0.00 | 98 | 1017.0 |
| 20260508092708 | 3 | 272 | 0.0 | 0.0 | 0.00 | 0.00 | 0.00 | 98 | 1017.0 |
| 20260508092207 | 3 | 272 | 0.0 | 0.0 | 0.00 | 0.00 | 0.00 | 98 | 1017.0 |
| 20260508091704 | 3 | 272 | 0.0 | 0.0 | 0.00 | 0.00 | 0.00 | 98 | 1017.0 |
| 20260508091201 | 3 | 272 | 0.0 | 0.0 | 0.00 | 0.00 | 0.00 | 98 | 1016.7 |
| 20260508090659 | 3 | 272 | 0.0 | 0.0 | 0.00 | 0.00 | 0.00 | 98 | 1016.9 |
| 20260508090156 | 3 | 272 | 0.0 | 0.0 | 0.00 | 0.00 | 0.00 | 98 | 1016.9 |
| 20260508085651 | 3 | 272 | 0.0 | 0.0 | 0.00 | 0.00 | 0.00 | 97 | 1016.9 |
| 20260508085149 | 3 | 272 | 0.0 | 0.0 | 0.00 | 0.00 | 0.00 | 98 | 1016.9 |
| 20260508084645 | 3 | 272 | 0.0 | 0.0 | 0.00 | 0.00 | 0.00 | 97 | 1016.9 |
| 20260508084143 | 4 | 272 | 0.0 | 0.0 | 0.00 | 0.00 | 0.00 | 98 | 1016.8 |
| 20260508083640 | 4 | 272 | 0.0 | 0.0 | 0.00 | 0.00 | 0.00 | 98 | 1016.7 |
| 20260508083138 | 4 | 272 | 0.0 | 0.0 | 0.00 | 0.00 | 0.00 | 97 | 1016.6 |
| 20260508082632 | 4 | 272 | 0.0 | 0.0 | 0.00 | 0.00 | 0.00 | 97 | 1016.8 |
| 20260508082130 | 4 | 272 | 0.0 | 0.0 | 0.00 | 0.00 | 0.00 | 97 | 1016.9 |
| 20260508081627 | 4 | 272 | 0.0 | 0.0 | 0.00 | 0.00 | 0.00 | 97 | 1016.9 |
| 20260508081124 | 4 | 272 | 0.0 | 0.0 | 0.00 | 0.00 | 0.00 | 97 | 1016.9 |